This is the latest recevied weather packets stored in our database for station/object KJ5IIV. If no packets are shown the sender has not sent any weather packets the latest 10 day(s).
| Time | Temp. | Humidity | Pressure | Rain* | Wind** | Luminosity | Snow |
|---|---|---|---|---|---|---|---|
| 1777758841 | 23.89° C | 36% | 1018.8 hPa | 0 mm | - | 544 W/m² | - |
| 1777758537 | 23.89° C | 36% | 1018.9 hPa | 0 mm | - | 562 W/m² | - |
| 1777758234 | 24.44° C | 38% | 1018.7 hPa | 0 mm | - | 575 W/m² | - |
| 1777757931 | 24.44° C | 33% | 1018.7 hPa | 0 mm | - | 607 W/m² | - |
| 1777757628 | 25° C | 35% | 1019 hPa | 0 mm | - | 603 W/m² | - |
| 1777757327 | 24.44° C | 34% | 1018.8 hPa | 0 mm | - | 621 W/m² | - |
| 1777757025 | 24.44° C | 33% | 1018.9 hPa | 0 mm | - | 649 W/m² | - |
| 1777756722 | 25° C | 36% | 1018.9 hPa | 0 mm | - | 665 W/m² | - |
| 1777756417 | 25° C | 32% | 1019.2 hPa | 0 mm | - | 672 W/m² | - |
| 1777756115 | 25° C | 32% | 1019.1 hPa | 0 mm | - | 707 W/m² | - |
| 1777755812 | 25° C | 36% | 1019.2 hPa | 0 mm | - | 746 W/m² | - |
| 1777755509 | 25° C | 36% | 1019.2 hPa | 0 mm | - | 725 W/m² | - |
| 1777755205 | 24.44° C | 35% | 1019.2 hPa | 0 mm | - | 723 W/m² | - |
| 1777754902 | 24.44° C | 33% | 1019.4 hPa | 0 mm | - | 732 W/m² | - |
| 1777754600 | 24.44° C | 35% | 1019.3 hPa | 0 mm | - | 746 W/m² | - |
| 1777754297 | 24.44° C | 33% | 1019.4 hPa | 0 mm | - | 769 W/m² | - |
| 1777753995 | 23.89° C | 35% | 1019.4 hPa | 0 mm | - | 785 W/m² | - |
| 1777753695 | 24.44° C | 33% | 1019.6 hPa | 0 mm | - | 795 W/m² | - |
| 1777753393 | 25° C | 37% | 1019.6 hPa | 0 mm | - | 801 W/m² | - |
| 1777753091 | 25° C | 32% | 1019.4 hPa | 0 mm | - | 822 W/m² | - |
| 1777752786 | 24.44° C | 33% | 1019.6 hPa | 0 mm | - | 839 W/m² | - |
| 1777752483 | 24.44° C | 37% | 1019.7 hPa | 0 mm | - | 841 W/m² | - |
| 1777752179 | 23.89° C | 33% | 1019.8 hPa | 0 mm | - | 835 W/m² | - |
| 1777751877 | 24.44° C | 35% | 1019.8 hPa | 0 mm | - | 842 W/m² | - |
| 1777751573 | 23.89° C | 35% | 1020.1 hPa | 0 mm | - | 845 W/m² | - |
* Rain latest hour (hover to see other rain measurements)
** Current wind speed in m/s (hover to see current wind gust speed)